Time,TemperatureF,DewpointF,PressureIn,WindDirection,WindDirectionDegrees,WindSpeedMPH,WindSpeedGustMPH,Humidity,HourlyPrecipIn,Conditions,Clouds,dailyrainin,SoftwareType,DateUTC
2013-10-28 00:01:00,59.7,57.7,30.04,North,360,0.0,0.0,93,0.00,,---,0.00,VWS V14.01,2013-10-28 05:01:00,
2013-10-28 00:06:00,59.6,57.6,30.04,North,360,0.0,0.0,93,0.00,,---,0.00,VWS V14.01,2013-10-28 05:06:00,
2013-10-28 00:11:00,59.5,57.5,30.04,North,360,0.0,0.0,93,0.00,,---,0.00,VWS V14.01,2013-10-28 05:11:00,
2013-10-28 00:16:00,59.4,57.4,30.03,North,360,0.0,0.0,93,0.00,,---,0.00,VWS V14.01,2013-10-28 05:16:00,
2013-10-28 00:21:00,59.4,57.4,30.04,North,360,0.0,0.0,93,0.00,,---,0.00,VWS V14.01,2013-10-28 05:21:00,
2013-10-28 00:26:00,59.3,57.3,30.03,North,360,0.0,0.0,93,0.00,,---,0.00,VWS V14.01,2013-10-28 05:26:00,
2013-10-28 00:31:00,59.3,57.6,30.03,North,360,0.0,0.0,94,0.00,,---,0.00,VWS V14.01,2013-10-28 05:31:00,
2013-10-28 00:36:00,59.3,57.6,30.03,North,360,0.0,0.0,94,0.00,,---,0.00,VWS V14.01,2013-10-28 05:36:00,
2013-10-28 00:41:00,59.3,57.6,30.03,North,360,0.0,0.0,94,0.00,,---,0.00,VWS V14.01,2013-10-28 05:41:00,
2013-10-28 00:46:00,59.3,57.6,30.03,North,360,0.0,0.0,94,0.00,,---,0.00,VWS V14.01,2013-10-28 05:46:00,
2013-10-28 00:51:00,59.5,57.8,30.03,North,360,0.0,0.0,94,0.00,,---,0.00,VWS V14.01,2013-10-28 05:51:00,
2013-10-28 00:56:00,59.5,57.8,30.03,North,360,0.0,0.0,94,0.00,,---,0.00,VWS V14.01,2013-10-28 05:56:00,
2013-10-28 01:01:00,59.6,57.9,30.03,North,360,0.0,0.0,94,0.00,,---,0.00,VWS V14.01,2013-10-28 06:01:00,
2013-10-28 01:06:00,59.5,57.8,30.03,North,360,0.0,0.0,94,0.00,,---,0.00,VWS V14.01,2013-10-28 06:06:00,
2013-10-28 01:11:00,59.5,57.8,30.03,North,360,0.0,0.0,94,0.00,,---,0.00,VWS V14.01,2013-10-28 06:11:00,
2013-10-28 01:16:00,59.5,57.8,30.03,North,360,0.0,0.0,94,0.00,,---,0.00,VWS V14.01,2013-10-28 06:16:00,
2013-10-28 01:21:00,59.4,57.7,30.03,North,360,0.0,0.0,94,0.00,,---,0.00,VWS V14.01,2013-10-28 06:21:00,
2013-10-28 01:26:00,59.3,57.6,30.02,North,360,0.0,0.0,94,0.00,,---,0.00,VWS V14.01,2013-10-28 06:26:00,
2013-10-28 01:31:00,59.2,57.5,30.02,North,360,0.0,0.0,94,0.00,,---,0.00,VWS V14.01,2013-10-28 06:31:00,
2013-10-28 01:36:00,59.0,57.3,30.03,North,360,0.0,0.0,94,0.00,,---,0.00,VWS V14.01,2013-10-28 06:36:00,
2013-10-28 01:41:00,58.8,57.1,30.03,North,360,0.0,0.0,94,0.00,,---,0.00,VWS V14.01,2013-10-28 06:41:00,
2013-10-28 01:46:00,58.7,57.0,30.03,North,360,0.0,0.0,94,0.00,,---,0.00,VWS V14.01,2013-10-28 06:46:00,
2013-10-28 01:51:00,58.7,57.0,30.03,North,360,0.0,0.0,94,0.00,,---,0.00,VWS V14.01,2013-10-28 06:51:00,
2013-10-28 01:56:00,58.8,57.1,30.03,North,360,0.0,0.0,94,0.00,,---,0.00,VWS V14.01,2013-10-28 06:56:00,
2013-10-28 02:01:00,58.8,57.1,30.03,North,360,0.0,0.0,94,0.00,,---,0.00,VWS V14.01,2013-10-28 07:01:00,
2013-10-28 02:06:00,58.8,57.1,30.03,North,360,0.0,0.0,94,0.00,,---,0.00,VWS V14.01,2013-10-28 07:06:00,
2013-10-28 02:11:00,58.7,57.0,30.03,North,360,0.0,0.0,94,0.00,,---,0.00,VWS V14.01,2013-10-28 07:11:00,
2013-10-28 02:16:00,58.6,56.9,30.03,North,360,0.0,0.0,94,0.00,,---,0.00,VWS V14.01,2013-10-28 07:16:00,
2013-10-28 02:21:00,58.5,56.8,30.03,North,360,0.0,0.0,94,0.00,,---,0.00,VWS V14.01,2013-10-28 07:21:00,
2013-10-28 02:26:00,58.6,56.9,30.03,North,360,0.0,0.0,94,0.01,,---,0.01,VWS V14.01,2013-10-28 07:26:00,
2013-10-28 02:31:00,58.7,57.0,30.03,North,360,0.0,0.0,94,0.01,,---,0.01,VWS V14.01,2013-10-28 07:31:00,
2013-10-28 02:36:00,58.7,57.0,30.03,North,360,0.0,0.0,94,0.01,,---,0.01,VWS V14.01,2013-10-28 07:36:00,
2013-10-28 02:41:00,58.8,57.1,30.03,North,360,0.0,0.0,94,0.01,,---,0.01,VWS V14.01,2013-10-28 07:41:00,
2013-10-28 02:46:00,58.7,57.0,30.02,North,360,0.0,0.0,94,0.01,,---,0.01,VWS V14.01,2013-10-28 07:46:00,
2013-10-28 02:51:00,58.8,57.4,30.03,North,360,0.0,0.0,95,0.01,,---,0.01,VWS V14.01,2013-10-28 07:51:00,
2013-10-28 02:56:00,58.9,57.5,30.02,North,360,0.0,0.0,95,0.01,,---,0.01,VWS V14.01,2013-10-28 07:56:00,
2013-10-28 03:01:00,58.8,57.4,30.02,North,360,0.0,0.0,95,0.01,,---,0.01,VWS V14.01,2013-10-28 08:01:00,
2013-10-28 03:06:00,58.7,57.0,30.02,North,360,0.0,0.0,94,0.01,,---,0.01,VWS V14.01,2013-10-28 08:06:00,
2013-10-28 03:11:00,58.6,56.9,30.02,North,360,0.0,0.0,94,0.01,,---,0.01,VWS V14.01,2013-10-28 08:11:00,
2013-10-28 03:16:00,58.7,57.3,30.02,North,360,0.0,0.0,95,0.01,,---,0.01,VWS V14.01,2013-10-28 08:16:00,
2013-10-28 03:21:00,58.8,57.4,30.02,North,360,0.0,0.0,95,0.01,,---,0.01,VWS V14.01,2013-10-28 08:21:00,
2013-10-28 03:26:00,58.9,57.5,30.02,North,360,0.0,0.0,95,0.01,,---,0.01,VWS V14.01,2013-10-28 08:26:00,
2013-10-28 03:31:00,59.0,57.6,30.02,North,360,0.0,0.0,95,0.00,,---,0.01,VWS V14.01,2013-10-28 08:31:00,
2013-10-28 03:36:00,58.9,57.5,30.02,North,360,0.0,0.0,95,0.00,,---,0.01,VWS V14.01,2013-10-28 08:36:00,
2013-10-28 03:41:00,58.9,57.5,30.02,North,360,0.0,0.0,95,0.00,,---,0.01,VWS V14.01,2013-10-28 08:41:00,
2013-10-28 03:46:00,59.0,57.6,30.02,North,360,0.0,0.0,95,0.00,,---,0.01,VWS V14.01,2013-10-28 08:46:00,
2013-10-28 03:51:00,59.0,57.6,30.02,North,360,0.0,1.0,95,0.00,,---,0.01,VWS V14.01,2013-10-28 08:51:00,
2013-10-28 03:56:00,59.0,57.6,30.02,North,360,0.0,1.0,95,0.00,,---,0.01,VWS V14.01,2013-10-28 08:56:00,
2013-10-28 04:01:00,59.0,57.6,30.02,North,360,0.0,0.0,95,0.00,,---,0.01,VWS V14.01,2013-10-28 09:01:00,
2013-10-28 04:06:00,59.1,57.7,30.02,North,360,0.0,0.0,95,0.00,,---,0.01,VWS V14.01,2013-10-28 09:06:00,
2013-10-28 04:11:00,59.0,57.6,30.02,North,360,0.0,0.0,95,0.00,,---,0.01,VWS V14.01,2013-10-28 09:11:00,
2013-10-28 04:16:00,59.0,57.6,30.02,North,360,0.0,0.0,95,0.00,,---,0.01,VWS V14.01,2013-10-28 09:16:00,
2013-10-28 04:21:00,58.9,57.5,30.02,North,360,0.0,0.0,95,0.00,,---,0.01,VWS V14.01,2013-10-28 09:21:00,
2013-10-28 04:26:00,58.8,57.4,30.02,North,360,0.0,0.0,95,0.00,,---,0.01,VWS V14.01,2013-10-28 09:26:00,
2013-10-28 04:31:00,58.7,57.3,30.02,North,360,0.0,1.0,95,0.00,,---,0.01,VWS V14.01,2013-10-28 09:31:00,
2013-10-28 04:36:00,58.7,57.3,30.03,North,360,0.0,1.0,95,0.00,,---,0.01,VWS V14.01,2013-10-28 09:36:00,
2013-10-28 04:41:00,59.0,57.6,30.03,North,360,0.0,1.0,95,0.00,,---,0.01,VWS V14.01,2013-10-28 09:41:00,
2013-10-28 04:46:00,59.1,57.7,30.03,North,360,0.0,1.0,95,0.00,,---,0.01,VWS V14.01,2013-10-28 09:46:00,
2013-10-28 04:51:00,59.2,57.8,30.03,North,360,0.0,1.0,95,0.00,,---,0.01,VWS V14.01,2013-10-28 09:51:00,
2013-10-28 04:56:00,59.4,58.0,30.03,North,360,0.0,1.0,95,0.00,,---,0.01,VWS V14.01,2013-10-28 09:56:00,
2013-10-28 05:01:00,59.7,58.3,30.03,North,360,0.0,0.0,95,0.00,,---,0.01,VWS V14.01,2013-10-28 10:01:00,
2013-10-28 05:06:00,59.9,58.5,30.03,North,360,0.0,2.0,95,0.00,,---,0.01,VWS V14.01,2013-10-28 10:06:00,
2013-10-28 05:11:00,60.0,58.6,30.03,North,360,0.0,2.0,95,0.00,,---,0.01,VWS V14.01,2013-10-28 10:11:00,
2013-10-28 05:16:00,60.0,58.6,30.04,North,360,0.0,2.0,95,0.00,,---,0.01,VWS V14.01,2013-10-28 10:16:00,
2013-10-28 05:21:00,60.0,58.6,30.04,North,360,0.0,2.0,95,0.00,,---,0.01,VWS V14.01,2013-10-28 10:21:00,
2013-10-28 05:26:00,60.0,58.6,30.04,North,360,1.0,2.0,95,0.00,,---,0.01,VWS V14.01,2013-10-28 10:26:00,
2013-10-28 05:31:00,60.1,58.7,30.04,North,360,0.0,1.0,95,0.00,,---,0.01,VWS V14.01,2013-10-28 10:31:00,
2013-10-28 05:36:00,60.1,58.7,30.04,North,360,0.0,1.0,95,0.00,,---,0.01,VWS V14.01,2013-10-28 10:36:00,
2013-10-28 05:41:00,60.2,58.8,30.04,North,360,0.0,1.0,95,0.00,,---,0.01,VWS V14.01,2013-10-28 10:41:00,
2013-10-28 05:46:00,60.3,58.9,30.05,North,360,0.0,1.0,95,0.00,,---,0.01,VWS V14.01,2013-10-28 10:46:00,
2013-10-28 05:51:00,60.3,58.9,30.04,North,360,0.0,1.0,95,0.00,,---,0.01,VWS V14.01,2013-10-28 10:51:00,
2013-10-28 05:56:00,60.3,58.9,30.05,North,360,0.0,1.0,95,0.00,,---,0.01,VWS V14.01,2013-10-28 10:56:00,
2013-10-28 06:01:00,60.3,58.9,30.05,North,360,0.0,0.0,95,0.00,,---,0.01,VWS V14.01,2013-10-28 11:01:00,
2013-10-28 06:06:00,60.3,58.9,30.05,North,360,0.0,1.0,95,0.00,,---,0.01,VWS V14.01,2013-10-28 11:06:00,
2013-10-28 06:11:00,60.4,59.0,30.06,North,360,0.0,1.0,95,0.00,,---,0.01,VWS V14.01,2013-10-28 11:11:00,
2013-10-28 06:16:00,60.4,58.7,30.06,North,360,0.0,1.0,94,0.00,,---,0.01,VWS V14.01,2013-10-28 11:16:00,
2013-10-28 06:21:00,60.4,58.7,30.06,North,360,0.0,1.0,94,0.00,,---,0.01,VWS V14.01,2013-10-28 11:21:00,
2013-10-28 06:26:00,60.4,58.7,30.06,North,360,0.0,1.0,94,0.00,,---,0.01,VWS V14.01,2013-10-28 11:26:00,
2013-10-28 06:31:00,60.4,58.7,30.06,North,360,0.0,0.0,94,0.00,,---,0.01,VWS V14.01,2013-10-28 11:31:00,
2013-10-28 06:36:00,60.4,58.7,30.06,North,360,0.0,0.0,94,0.00,,---,0.01,VWS V14.01,2013-10-28 11:36:00,
2013-10-28 06:41:00,60.3,58.6,30.06,North,360,0.0,1.0,94,0.00,,---,0.01,VWS V14.01,2013-10-28 11:41:00,
2013-10-28 06:46:00,60.3,58.6,30.07,North,360,0.0,1.0,94,0.00,,---,0.01,VWS V14.01,2013-10-28 11:46:00,
2013-10-28 06:51:00,60.3,58.6,30.06,North,360,1.0,1.0,94,0.00,,---,0.01,VWS V14.01,2013-10-28 11:51:00,
2013-10-28 06:56:00,60.3,58.6,30.07,North,360,0.0,1.0,94,0.00,,---,0.01,VWS V14.01,2013-10-28 11:56:00,
2013-10-28 07:01:00,60.2,58.5,30.07,North,360,0.0,2.0,94,0.00,,---,0.01,VWS V14.01,2013-10-28 12:01:00,
2013-10-28 07:06:00,60.3,58.6,30.08,North,360,0.0,2.0,94,0.00,,---,0.01,VWS V14.01,2013-10-28 12:06:00,
2013-10-28 07:11:00,60.3,58.6,30.08,North,360,0.0,2.0,94,0.00,,---,0.01,VWS V14.01,2013-10-28 12:11:00,
2013-10-28 07:16:00,60.2,58.5,30.08,North,360,0.0,2.0,94,0.00,,---,0.01,VWS V14.01,2013-10-28 12:16:00,
2013-10-28 07:21:00,60.2,58.5,30.08,NNE,12,0.0,2.0,94,0.00,,---,0.01,VWS V14.01,2013-10-28 12:21:00,
2013-10-28 07:26:00,60.2,58.5,30.08,NNE,12,0.0,2.0,94,0.00,,---,0.01,VWS V14.01,2013-10-28 12:26:00,
2013-10-28 07:31:00,60.2,58.5,30.08,NNE,12,0.0,0.0,94,0.00,,---,0.01,VWS V14.01,2013-10-28 12:31:00,
2013-10-28 07:36:00,60.2,58.5,30.08,NNE,12,0.0,0.0,94,0.00,,---,0.01,VWS V14.01,2013-10-28 12:36:00,
2013-10-28 07:41:00,60.3,58.6,30.08,NNE,12,0.0,0.0,94,0.00,,---,0.01,VWS V14.01,2013-10-28 12:41:00,
2013-10-28 07:46:00,60.3,58.6,30.08,NNE,12,0.0,0.0,94,0.00,,---,0.01,VWS V14.01,2013-10-28 12:46:00,
2013-10-28 07:51:00,60.4,58.7,30.09,NNE,12,0.0,0.0,94,0.00,,---,0.01,VWS V14.01,2013-10-28 12:51:00,
2013-10-28 07:56:00,60.7,59.0,30.09,NNE,12,0.0,0.0,94,0.00,,---,0.01,VWS V14.01,2013-10-28 12:56:00,
2013-10-28 08:01:00,61.0,59.3,30.09,NNE,12,0.0,0.0,94,0.00,,---,0.01,VWS V14.01,2013-10-28 13:01:00,
2013-10-28 08:06:00,61.5,59.8,30.09,North,11,0.0,1.0,94,0.00,,---,0.01,VWS V14.01,2013-10-28 13:06:00,
2013-10-28 08:11:00,62.1,60.4,30.09,North,11,0.0,1.0,94,0.00,,---,0.01,VWS V14.01,2013-10-28 13:11:00,
2013-10-28 08:16:00,62.6,60.8,30.10,North,11,0.0,1.0,94,0.00,,---,0.01,VWS V14.01,2013-10-28 13:16:00,
2013-10-28 08:21:00,63.2,61.2,30.10,North,11,0.0,1.0,93,0.00,,---,0.01,VWS V14.01,2013-10-28 13:21:00,
2013-10-28 08:26:00,63.8,61.7,30.10,North,11,0.0,1.0,93,0.00,,---,0.01,VWS V14.01,2013-10-28 13:26:00,
2013-10-28 08:31:00,64.4,62.0,30.10,North,11,0.0,0.0,92,0.00,,---,0.01,VWS V14.01,2013-10-28 13:31:00,
2013-10-28 08:36:00,65.0,62.3,30.11,North,11,0.0,0.0,91,0.00,,---,0.01,VWS V14.01,2013-10-28 13:36:00,
2013-10-28 08:41:00,65.6,62.3,30.11,North,11,0.0,2.0,89,0.00,,---,0.01,VWS V14.01,2013-10-28 13:41:00,
2013-10-28 08:46:00,66.1,62.5,30.11,North,11,0.0,2.0,88,0.00,,---,0.01,VWS V14.01,2013-10-28 13:46:00,
2013-10-28 08:51:00,66.7,62.7,30.11,North,11,1.0,2.0,87,0.00,,---,0.01,VWS V14.01,2013-10-28 13:51:00,
2013-10-28 08:56:00,67.4,63.4,30.11,North,11,0.0,2.0,87,0.00,,---,0.01,VWS V14.01,2013-10-28 13:56:00,
2013-10-28 09:01:00,67.9,63.6,30.11,North,9,0.0,1.0,86,0.00,,---,0.01,VWS V14.01,2013-10-28 14:01:00,
2013-10-28 09:06:00,68.5,63.5,30.11,NE,34,2.0,4.0,84,0.00,,---,0.01,VWS V14.01,2013-10-28 14:06:00,
2013-10-28 09:11:00,68.9,63.9,30.11,NE,55,0.0,4.0,84,0.00,,---,0.01,VWS V14.01,2013-10-28 14:11:00,
2013-10-28 09:16:00,69.3,63.9,30.12,ENE,57,0.0,4.0,83,0.00,,---,0.01,VWS V14.01,2013-10-28 14:16:00,
2013-10-28 09:21:00,69.8,65.1,30.12,ENE,65,1.0,4.0,85,0.00,,---,0.01,VWS V14.01,2013-10-28 14:21:00,
2013-10-28 09:25:00,70.5,65.1,30.12,ENE,65,2.0,4.0,83,0.00,,---,0.01,VWS V14.01,2013-10-28 14:25:00,
2013-10-28 09:30:00,70.9,64.8,30.12,East,88,0.0,5.0,81,0.00,,---,0.01,VWS V14.01,2013-10-28 14:30:00,
2013-10-28 09:35:00,71.3,65.2,30.12,East,88,0.0,5.0,81,0.00,,---,0.01,VWS V14.01,2013-10-28 14:35:00,
2013-10-28 09:40:00,71.8,64.9,30.12,East,88,3.0,5.0,79,0.00,,---,0.01,VWS V14.01,2013-10-28 14:40:00,
2013-10-28 09:45:00,71.9,65.0,30.12,East,88,1.0,5.0,79,0.00,,---,0.01,VWS V14.01,2013-10-28 14:45:00,
2013-10-28 09:50:00,72.2,65.7,30.13,East,88,0.0,5.0,80,0.00,,---,0.01,VWS V14.01,2013-10-28 14:50:00,
2013-10-28 09:55:00,72.7,65.4,30.13,East,88,0.0,5.0,78,0.00,,---,0.01,VWS V14.01,2013-10-28 14:55:00,
2013-10-28 10:00:00,72.8,65.6,30.13,East,89,0.0,3.0,78,0.00,,---,0.01,VWS V14.01,2013-10-28 15:00:00,
2013-10-28 10:05:00,73.3,66.0,30.13,East,92,1.0,4.0,78,0.00,,---,0.01,VWS V14.01,2013-10-28 15:05:00,
2013-10-28 10:10:00,73.8,66.2,30.13,East,92,2.0,4.0,77,0.00,,---,0.01,VWS V14.01,2013-10-28 15:10:00,
2013-10-28 10:15:00,74.3,65.9,30.13,East,96,0.0,6.0,75,0.00,,---,0.01,VWS V14.01,2013-10-28 15:15:00,
2013-10-28 10:20:00,74.6,65.4,30.13,East,98,0.0,6.0,73,0.00,,---,0.01,VWS V14.01,2013-10-28 15:20:00,
2013-10-28 10:25:00,75.1,66.2,30.13,SSE,151,0.0,6.0,74,0.00,,---,0.01,VWS V14.01,2013-10-28 15:25:00,
2013-10-28 10:30:00,75.1,66.2,30.13,SE,136,0.0,4.0,74,0.00,,---,0.01,VWS V14.01,2013-10-28 15:30:00,
2013-10-28 10:35:00,75.2,66.0,30.13,ESE,105,1.0,5.0,73,0.00,,---,0.01,VWS V14.01,2013-10-28 15:35:00,
2013-10-28 10:40:00,75.3,66.4,30.13,SE,131,3.0,5.0,74,0.00,,---,0.01,VWS V14.01,2013-10-28 15:40:00,
2013-10-28 10:45:00,75.8,66.5,30.13,SE,139,0.0,5.0,73,0.00,,---,0.01,VWS V14.01,2013-10-28 15:45:00,
2013-10-28 10:50:00,76.2,66.1,30.13,ESE,114,2.0,5.0,71,0.00,,---,0.01,VWS V14.01,2013-10-28 15:50:00,
2013-10-28 10:55:00,76.2,65.7,30.13,SE,140,0.0,7.0,70,0.00,,---,0.01,VWS V14.01,2013-10-28 15:55:00,
2013-10-28 11:00:00,76.2,65.7,30.13,SE,146,4.0,4.0,70,0.00,,---,0.01,VWS V14.01,2013-10-28 16:00:00,
2013-10-28 11:05:00,76.2,64.9,30.13,South,188,0.0,6.0,68,0.00,,---,0.01,VWS V14.01,2013-10-28 16:05:00,
2013-10-28 11:10:00,76.4,65.9,30.13,South,181,5.0,6.0,70,0.00,,---,0.01,VWS V14.01,2013-10-28 16:10:00,
2013-10-28 11:15:00,76.3,65.8,30.13,South,177,0.0,6.0,70,0.00,,---,0.01,VWS V14.01,2013-10-28 16:15:00,
2013-10-28 11:20:00,76.4,66.3,30.13,South,177,1.0,6.0,71,0.00,,---,0.01,VWS V14.01,2013-10-28 16:20:00,
2013-10-28 11:25:00,76.1,66.0,30.12,SSE,155,0.0,6.0,71,0.00,,---,0.01,VWS V14.01,2013-10-28 16:25:00,
2013-10-28 11:30:00,75.8,65.7,30.12,SSE,155,1.0,2.0,71,0.00,,---,0.01,VWS V14.01,2013-10-28 16:30:00,
2013-10-28 11:35:00,75.6,65.1,30.12,ESE,116,1.0,4.0,70,0.00,,---,0.01,VWS V14.01,2013-10-28 16:35:00,
2013-10-28 11:40:00,76.3,65.8,30.12,SSE,161,1.0,5.0,70,0.00,,---,0.01,VWS V14.01,2013-10-28 16:40:00,
2013-10-28 11:45:00,77.0,64.8,30.12,SSE,148,5.0,7.0,66,0.00,,---,0.01,VWS V14.01,2013-10-28 16:45:00,
2013-10-28 11:50:00,77.3,65.1,30.12,South,171,1.0,7.0,66,0.00,,---,0.01,VWS V14.01,2013-10-28 16:50:00,
2013-10-28 11:55:00,77.3,64.6,30.11,SSE,168,4.0,7.0,65,0.00,,---,0.01,VWS V14.01,2013-10-28 16:55:00,
2013-10-28 12:00:00,77.5,64.8,30.11,SSW,200,6.0,8.0,65,0.00,,---,0.01,VWS V14.01,2013-10-28 17:00:00,
2013-10-28 12:05:00,77.3,64.6,30.11,South,186,0.0,8.0,65,0.00,,---,0.01,VWS V14.01,2013-10-28 17:05:00,
2013-10-28 12:10:00,77.4,64.7,30.11,SSW,198,0.0,8.0,65,0.00,,---,0.01,VWS V14.01,2013-10-28 17:10:00,
2013-10-28 12:15:00,77.3,65.1,30.11,SW,218,10.0,10.0,66,0.00,,---,0.01,VWS V14.01,2013-10-28 17:15:00,
2013-10-28 12:20:00,76.9,64.2,30.11,SSW,205,0.0,10.0,65,0.00,,---,0.01,VWS V14.01,2013-10-28 17:20:00,
2013-10-28 12:25:00,76.7,64.5,30.11,South,188,7.0,10.0,66,0.00,,---,0.01,VWS V14.01,2013-10-28 17:25:00,
2013-10-28 12:30:00,77.0,64.8,30.11,SSW,207,2.0,10.0,66,0.00,,---,0.01,VWS V14.01,2013-10-28 17:30:00,
2013-10-28 12:35:00,77.2,64.1,30.11,SW,217,1.0,10.0,64,0.00,,---,0.01,VWS V14.01,2013-10-28 17:35:00,
2013-10-28 12:40:00,77.3,64.6,30.11,WSW,238,3.0,10.0,65,0.00,,---,0.01,VWS V14.01,2013-10-28 17:40:00,
2013-10-28 12:45:00,77.4,64.3,30.10,SSW,211,0.0,10.0,64,0.00,,---,0.01,VWS V14.01,2013-10-28 17:45:00,
2013-10-28 12:50:00,77.6,64.5,30.10,South,184,5.0,10.0,64,0.00,,---,0.01,VWS V14.01,2013-10-28 17:50:00,
2013-10-28 12:55:00,77.6,65.8,30.10,South,172,6.0,10.0,67,0.00,,---,0.01,VWS V14.01,2013-10-28 17:55:00,
2013-10-28 13:00:00,77.8,65.1,30.10,SSW,196,6.0,9.0,65,0.00,,---,0.01,VWS V14.01,2013-10-28 18:00:00,
2013-10-28 13:05:00,77.8,64.7,30.10,South,173,4.0,11.0,64,0.00,,---,0.01,VWS V14.01,2013-10-28 18:05:00,
2013-10-28 13:10:00,77.7,65.0,30.10,SW,220,1.0,11.0,65,0.00,,---,0.01,VWS V14.01,2013-10-28 18:10:00,
2013-10-28 13:15:00,77.6,64.5,30.09,SSW,213,9.0,11.0,64,0.00,,---,0.01,VWS V14.01,2013-10-28 18:15:00,
2013-10-28 13:20:00,77.8,65.1,30.09,South,184,0.0,11.0,65,0.00,,---,0.01,VWS V14.01,2013-10-28 18:20:00,
2013-10-28 13:25:00,77.9,64.8,30.09,South,171,3.0,11.0,64,0.00,,---,0.01,VWS V14.01,2013-10-28 18:25:00,
2013-10-28 13:30:00,77.9,64.8,30.09,SSW,200,0.0,6.0,64,0.00,,---,0.01,VWS V14.01,2013-10-28 18:30:00,
2013-10-28 13:35:00,77.8,65.1,30.09,SSW,200,7.0,9.0,65,0.00,,---,0.01,VWS V14.01,2013-10-28 18:35:00,
2013-10-28 13:40:00,78.0,64.8,30.08,SE,144,6.0,9.0,64,0.00,,---,0.01,VWS V14.01,2013-10-28 18:40:00,
2013-10-28 13:45:00,78.0,64.8,30.08,SSW,192,5.0,12.0,64,0.00,,---,0.01,VWS V14.01,2013-10-28 18:45:00,
2013-10-28 13:50:00,77.8,64.2,30.08,SSE,165,0.0,12.0,63,0.00,,---,0.01,VWS V14.01,2013-10-28 18:50:00,
2013-10-28 13:55:00,77.7,65.0,30.08,SE,146,6.0,12.0,65,0.00,,---,0.01,VWS V14.01,2013-10-28 18:55:00,
2013-10-28 14:00:00,77.7,64.1,30.08,SSW,196,0.0,9.0,63,0.00,,---,0.01,VWS V14.01,2013-10-28 19:00:00,
2013-10-28 14:05:00,77.8,64.2,30.08,SSW,192,4.0,9.0,63,0.00,,---,0.01,VWS V14.01,2013-10-28 19:05:00,
2013-10-28 14:10:00,77.7,64.6,30.07,South,179,4.0,9.0,64,0.00,,---,0.01,VWS V14.01,2013-10-28 19:10:00,
2013-10-28 14:15:00,77.7,65.0,30.08,SE,136,2.0,10.0,65,0.00,,---,0.01,VWS V14.01,2013-10-28 19:15:00,
2013-10-28 14:20:00,77.7,64.6,30.08,South,180,1.0,10.0,64,0.00,,---,0.01,VWS V14.01,2013-10-28 19:20:00,
2013-10-28 14:25:00,77.6,64.5,30.07,ESE,119,5.0,11.0,64,0.00,,---,0.01,VWS V14.01,2013-10-28 19:25:00,
2013-10-28 14:30:00,77.5,64.4,30.07,SSE,148,2.0,8.0,64,0.00,,---,0.01,VWS V14.01,2013-10-28 19:30:00,
2013-10-28 14:35:00,77.6,64.9,30.07,South,183,0.0,8.0,65,0.00,,---,0.01,VWS V14.01,2013-10-28 19:35:00,
2013-10-28 14:40:00,77.8,64.7,30.07,SSW,210,0.0,10.0,64,0.00,,---,0.01,VWS V14.01,2013-10-28 19:40:00,
2013-10-28 14:45:00,77.9,64.8,30.07,South,180,5.0,10.0,64,0.00,,---,0.01,VWS V14.01,2013-10-28 19:45:00,
2013-10-28 14:50:00,77.9,64.8,30.07,SSW,202,0.0,10.0,64,0.00,,---,0.01,VWS V14.01,2013-10-28 19:50:00,
2013-10-28 14:55:00,77.9,64.8,30.07,SW,220,0.0,10.0,64,0.00,,---,0.01,VWS V14.01,2013-10-28 19:55:00,
2013-10-28 15:00:00,77.9,64.8,30.07,SSW,202,4.0,11.0,64,0.00,,---,0.01,VWS V14.01,2013-10-28 20:00:00,
2013-10-28 15:05:00,78.0,64.4,30.07,SE,130,4.0,11.0,63,0.00,,---,0.01,VWS V14.01,2013-10-28 20:05:00,
2013-10-28 15:10:00,77.8,64.7,30.07,SSW,209,5.0,11.0,64,0.00,,---,0.01,VWS V14.01,2013-10-28 20:10:00,
2013-10-28 15:15:00,77.4,64.3,30.08,SSE,157,2.0,12.0,64,0.00,,---,0.01,VWS V14.01,2013-10-28 20:15:00,
2013-10-28 15:20:00,77.1,64.0,30.07,SSW,193,11.0,12.0,64,0.00,,---,0.01,VWS V14.01,2013-10-28 20:20:00,
2013-10-28 15:25:00,76.7,64.5,30.08,South,175,4.0,13.0,66,0.00,,---,0.01,VWS V14.01,2013-10-28 20:25:00,
2013-10-28 15:30:00,76.5,63.9,30.08,South,181,12.0,12.0,65,0.00,,---,0.01,VWS V14.01,2013-10-28 20:30:00,
2013-10-28 15:35:00,76.3,64.6,30.07,SSE,161,5.0,12.0,67,0.00,,---,0.01,VWS V14.01,2013-10-28 20:35:00,
2013-10-28 15:40:00,76.1,64.4,30.07,SE,133,0.0,12.0,67,0.00,,---,0.01,VWS V14.01,2013-10-28 20:40:00,
2013-10-28 15:45:00,76.1,64.4,30.07,South,180,3.0,14.0,67,0.00,,---,0.01,VWS V14.01,2013-10-28 20:45:00,
2013-10-28 15:50:00,76.0,64.7,30.07,South,188,2.0,14.0,68,0.00,,---,0.01,VWS V14.01,2013-10-28 20:50:00,
2013-10-28 15:55:00,76.2,65.3,30.08,SSE,159,5.0,14.0,69,0.00,,---,0.01,VWS V14.01,2013-10-28 20:55:00,
2013-10-28 16:00:00,76.3,65.0,30.07,South,171,4.0,11.0,68,0.00,,---,0.01,VWS V14.01,2013-10-28 21:00:00,
2013-10-28 16:05:00,76.1,64.8,30.07,South,169,8.0,11.0,68,0.00,,---,0.01,VWS V14.01,2013-10-28 21:05:00,
2013-10-28 16:10:00,76.0,64.7,30.07,SSW,198,4.0,11.0,68,0.00,,---,0.01,VWS V14.01,2013-10-28 21:10:00,
2013-10-28 16:15:00,76.0,64.7,30.07,SSW,211,8.0,12.0,68,0.00,,---,0.01,VWS V14.01,2013-10-28 21:15:00,
2013-10-28 16:20:00,75.9,64.2,30.07,SE,135,3.0,13.0,67,0.00,,---,0.01,VWS V14.01,2013-10-28 21:20:00,
2013-10-28 16:25:00,75.6,63.9,30.07,South,178,3.0,13.0,67,0.00,,---,0.01,VWS V14.01,2013-10-28 21:25:00,
2013-10-28 16:30:00,75.6,64.3,30.08,SSE,166,0.0,9.0,68,0.00,,---,0.01,VWS V14.01,2013-10-28 21:30:00,
2013-10-28 16:35:00,75.5,64.2,30.08,SSW,206,4.0,11.0,68,0.00,,---,0.01,VWS V14.01,2013-10-28 21:35:00,
2013-10-28 16:40:00,75.4,64.1,30.08,South,176,4.0,11.0,68,0.00,,---,0.01,VWS V14.01,2013-10-28 21:40:00,
2013-10-28 16:45:00,75.3,64.0,30.07,South,186,7.0,12.0,68,0.00,,---,0.01,VWS V14.01,2013-10-28 21:45:00,
2013-10-28 16:50:00,75.2,64.3,30.08,SE,130,8.0,12.0,69,0.00,,---,0.01,VWS V14.01,2013-10-28 21:50:00,
2013-10-28 16:55:00,75.1,63.8,30.07,SSE,163,2.0,12.0,68,0.00,,---,0.01,VWS V14.01,2013-10-28 21:55:00,
2013-10-28 17:00:00,74.9,63.6,30.08,South,173,2.0,9.0,68,0.00,,---,0.01,VWS V14.01,2013-10-28 22:00:00,
2013-10-28 17:05:00,74.8,64.0,30.07,South,183,7.0,9.0,69,0.00,,---,0.01,VWS V14.01,2013-10-28 22:05:00,
2013-10-28 17:10:00,74.7,63.9,30.08,SSE,165,2.0,9.0,69,0.00,,---,0.01,VWS V14.01,2013-10-28 22:10:00,
2013-10-28 17:15:00,74.7,64.3,30.08,South,177,3.0,9.0,70,0.00,,---,0.01,VWS V14.01,2013-10-28 22:15:00,
2013-10-28 17:20:00,74.6,64.2,30.08,South,188,3.0,9.0,70,0.00,,---,0.01,VWS V14.01,2013-10-28 22:20:00,
2013-10-28 17:25:00,74.4,64.0,30.08,South,175,0.0,9.0,70,0.00,,---,0.01,VWS V14.01,2013-10-28 22:25:00,
2013-10-28 17:30:00,74.2,64.2,30.08,South,172,0.0,6.0,71,0.00,,---,0.01,VWS V14.01,2013-10-28 22:30:00,
2013-10-28 17:35:00,73.9,64.3,30.08,South,172,0.0,6.0,72,0.00,,---,0.01,VWS V14.01,2013-10-28 22:35:00,
2013-10-28 17:40:00,73.7,64.1,30.08,South,170,3.0,6.0,72,0.00,,---,0.01,VWS V14.01,2013-10-28 22:40:00,
2013-10-28 17:45:00,73.4,63.8,30.08,SSE,168,0.0,6.0,72,0.00,,---,0.01,VWS V14.01,2013-10-28 22:45:00,
2013-10-28 17:50:00,73.1,63.9,30.08,SSE,168,0.0,6.0,73,0.00,,---,0.01,VWS V14.01,2013-10-28 22:50:00,
2013-10-28 17:55:00,72.8,64.0,30.08,SSE,168,1.0,6.0,74,0.00,,---,0.01,VWS V14.01,2013-10-28 22:55:00,
2013-10-28 18:00:00,72.4,64.0,30.08,SSE,168,0.0,0.0,75,0.00,,---,0.01,VWS V14.01,2013-10-28 23:00:00,
2013-10-28 18:05:00,72.1,63.8,30.08,SSE,168,0.0,0.0,75,0.00,,---,0.01,VWS V14.01,2013-10-28 23:05:00,
2013-10-28 18:10:00,71.6,63.6,30.08,SSE,168,0.0,0.0,76,0.00,,---,0.01,VWS V14.01,2013-10-28 23:10:00,
2013-10-28 18:15:00,71.1,63.5,30.09,SSE,168,0.0,0.0,77,0.00,,---,0.01,VWS V14.01,2013-10-28 23:15:00,
2013-10-28 18:20:00,70.6,63.4,30.09,SSE,168,0.0,0.0,78,0.00,,---,0.01,VWS V14.01,2013-10-28 23:20:00,
2013-10-28 18:25:00,70.1,63.3,30.09,SSE,168,0.0,0.0,79,0.00,,---,0.01,VWS V14.01,2013-10-28 23:25:00,
2013-10-28 18:30:00,69.6,63.2,30.09,SSE,168,0.0,0.0,80,0.00,,---,0.01,VWS V14.01,2013-10-28 23:30:00,
2013-10-28 18:35:00,69.2,62.8,30.09,SSE,168,0.0,0.0,80,0.00,,---,0.01,VWS V14.01,2013-10-28 23:35:00,
2013-10-28 18:40:00,68.7,62.6,30.09,SSE,168,0.0,0.0,81,0.00,,---,0.01,VWS V14.01,2013-10-28 23:40:00,
2013-10-28 18:45:00,68.2,62.5,30.09,SSE,168,0.0,0.0,82,0.00,,---,0.01,VWS V14.01,2013-10-28 23:45:00,
2013-10-28 18:50:00,67.9,62.2,30.09,SSE,168,0.0,0.0,82,0.00,,---,0.01,VWS V14.01,2013-10-28 23:50:00,
2013-10-28 18:55:00,67.5,62.2,30.09,SSE,168,0.0,0.0,83,0.00,,---,0.01,VWS V14.01,2013-10-28 23:55:00,
2013-10-28 19:00:00,67.2,61.9,30.09,SSE,168,0.0,0.0,83,0.00,,---,0.01,VWS V14.01,2013-10-29 00:00:00,
2013-10-28 19:05:00,66.8,61.8,30.09,SSE,168,0.0,0.0,84,0.00,,---,0.01,VWS V14.01,2013-10-29 00:05:00,
2013-10-28 19:10:00,66.5,61.9,30.09,SSE,168,0.0,0.0,85,0.00,,---,0.01,VWS V14.01,2013-10-29 00:10:00,
2013-10-28 19:15:00,66.2,61.9,30.09,SSE,168,0.0,0.0,86,0.00,,---,0.01,VWS V14.01,2013-10-29 00:15:00,
2013-10-28 19:20:00,66.0,61.7,30.09,SSE,168,0.0,0.0,86,0.00,,---,0.01,VWS V14.01,2013-10-29 00:20:00,
2013-10-28 19:25:00,65.7,61.4,30.09,SSE,168,0.0,0.0,86,0.00,,---,0.01,VWS V14.01,2013-10-29 00:25:00,
2013-10-28 19:30:00,65.4,61.1,30.09,SSE,168,0.0,0.0,86,0.00,,---,0.01,VWS V14.01,2013-10-29 00:30:00,
2013-10-28 19:35:00,65.2,61.2,30.09,SSE,168,0.0,0.0,87,0.00,,---,0.01,VWS V14.01,2013-10-29 00:35:00,
2013-10-28 19:40:00,65.0,61.0,30.09,SSE,168,0.0,0.0,87,0.00,,---,0.01,VWS V14.01,2013-10-29 00:40:00,
2013-10-28 19:45:00,64.8,61.2,30.09,SSE,168,0.0,0.0,88,0.00,,---,0.01,VWS V14.01,2013-10-29 00:45:00,
2013-10-28 19:50:00,64.7,61.4,30.09,SSE,168,0.0,0.0,89,0.00,,---,0.01,VWS V14.01,2013-10-29 00:50:00,
2013-10-28 19:55:00,64.6,61.3,30.09,SSE,168,0.0,0.0,89,0.00,,---,0.01,VWS V14.01,2013-10-29 00:55:00,
2013-10-28 20:00:00,64.5,61.2,30.10,SSE,168,0.0,0.0,89,0.00,,---,0.01,VWS V14.01,2013-10-29 01:00:00,
2013-10-28 20:05:00,64.5,61.2,30.10,SSE,168,0.0,0.0,89,0.00,,---,0.01,VWS V14.01,2013-10-29 01:05:00,
2013-10-28 20:10:00,64.3,61.0,30.10,SSE,168,0.0,0.0,89,0.00,,---,0.01,VWS V14.01,2013-10-29 01:10:00,
2013-10-28 20:15:00,64.2,61.2,30.10,SSE,168,0.0,0.0,90,0.00,,---,0.01,VWS V14.01,2013-10-29 01:15:00,
2013-10-28 20:20:00,64.1,61.1,30.10,SSE,168,0.0,0.0,90,0.00,,---,0.01,VWS V14.01,2013-10-29 01:20:00,
2013-10-28 20:25:00,64.0,61.0,30.11,SSE,168,0.0,0.0,90,0.00,,---,0.01,VWS V14.01,2013-10-29 01:25:00,
2013-10-28 20:30:00,63.9,60.9,30.11,SSE,168,0.0,0.0,90,0.00,,---,0.01,VWS V14.01,2013-10-29 01:30:00,
2013-10-28 20:35:00,63.7,60.7,30.11,SSE,168,0.0,0.0,90,0.00,,---,0.01,VWS V14.01,2013-10-29 01:35:00,
2013-10-28 20:40:00,63.6,60.9,30.11,SSE,168,0.0,0.0,91,0.00,,---,0.01,VWS V14.01,2013-10-29 01:40:00,
2013-10-28 20:45:00,63.5,60.8,30.11,SSE,168,0.0,0.0,91,0.00,,---,0.01,VWS V14.01,2013-10-29 01:45:00,
2013-10-28 20:50:00,63.4,60.7,30.11,SSE,168,0.0,0.0,91,0.00,,---,0.01,VWS V14.01,2013-10-29 01:50:00,
2013-10-28 20:55:00,63.3,60.6,30.11,SSE,168,0.0,0.0,91,0.00,,---,0.01,VWS V14.01,2013-10-29 01:55:00,
2013-10-28 21:00:00,63.2,60.5,30.11,SSE,168,0.0,0.0,91,0.00,,---,0.01,VWS V14.01,2013-10-29 02:00:00,
2013-10-28 21:05:00,63.0,60.3,30.12,SSE,168,0.0,0.0,91,0.00,,---,0.01,VWS V14.01,2013-10-29 02:05:00,
2013-10-28 21:10:00,62.9,60.5,30.12,SSE,168,0.0,0.0,92,0.00,,---,0.01,VWS V14.01,2013-10-29 02:10:00,
2013-10-28 21:15:00,62.9,60.5,30.12,SSE,168,0.0,0.0,92,0.00,,---,0.01,VWS V14.01,2013-10-29 02:15:00,
2013-10-28 21:20:00,62.8,60.5,30.12,SSE,168,0.0,0.0,92,0.00,,---,0.01,VWS V14.01,2013-10-29 02:20:00,
2013-10-28 21:25:00,62.7,60.3,30.13,SSE,168,0.0,0.0,92,0.00,,---,0.01,VWS V14.01,2013-10-29 02:25:00,
2013-10-28 21:30:00,62.7,60.3,30.13,SSE,168,0.0,0.0,92,0.00,,---,0.01,VWS V14.01,2013-10-29 02:30:00,
2013-10-28 21:35:00,62.6,60.2,30.13,SSE,168,0.0,0.0,92,0.00,,---,0.01,VWS V14.01,2013-10-29 02:35:00,
2013-10-28 21:40:00,62.5,60.2,30.13,SSE,168,0.0,0.0,92,0.00,,---,0.01,VWS V14.01,2013-10-29 02:40:00,
2013-10-28 21:45:00,62.5,60.2,30.13,SSE,168,0.0,0.0,92,0.00,,---,0.01,VWS V14.01,2013-10-29 02:45:00,
2013-10-28 21:50:00,62.4,60.3,30.13,SSE,168,0.0,0.0,93,0.00,,---,0.01,VWS V14.01,2013-10-29 02:50:00,
2013-10-28 21:55:00,62.3,60.0,30.13,SSE,168,0.0,0.0,92,0.00,,---,0.01,VWS V14.01,2013-10-29 02:55:00,
2013-10-28 22:00:00,62.2,60.2,30.13,SSE,168,0.0,0.0,93,0.00,,---,0.01,VWS V14.01,2013-10-29 03:00:00,
2013-10-28 22:05:00,62.1,60.1,30.13,SSE,168,0.0,0.0,93,0.00,,---,0.01,VWS V14.01,2013-10-29 03:05:00,
2013-10-28 22:10:00,62.1,60.1,30.13,SSE,168,0.0,0.0,93,0.00,,---,0.01,VWS V14.01,2013-10-29 03:10:00,
2013-10-28 22:15:00,61.9,59.9,30.13,SSE,168,0.0,0.0,93,0.00,,---,0.01,VWS V14.01,2013-10-29 03:15:00,
2013-10-28 22:20:00,61.8,59.8,30.13,SSE,168,0.0,0.0,93,0.00,,---,0.01,VWS V14.01,2013-10-29 03:20:00,
2013-10-28 22:25:00,61.6,59.3,30.13,SSE,168,0.0,0.0,92,0.00,,---,0.01,VWS V14.01,2013-10-29 03:25:00,
2013-10-28 22:30:00,61.5,59.5,30.13,SSE,168,0.0,0.0,93,0.00,,---,0.01,VWS V14.01,2013-10-29 03:30:00,
2013-10-28 22:35:00,61.4,59.4,30.13,SSE,168,0.0,0.0,93,0.00,,---,0.01,VWS V14.01,2013-10-29 03:35:00,
2013-10-28 22:40:00,61.3,59.3,30.13,SSE,168,0.0,0.0,93,0.00,,---,0.01,VWS V14.01,2013-10-29 03:40:00,
2013-10-28 22:45:00,61.2,59.2,30.13,SSE,168,0.0,0.0,93,0.00,,---,0.01,VWS V14.01,2013-10-29 03:45:00,
2013-10-28 22:50:00,61.0,59.0,30.12,SSE,168,0.0,0.0,93,0.00,,---,0.01,VWS V14.01,2013-10-29 03:50:00,
2013-10-28 22:55:00,61.0,59.0,30.12,SSE,168,0.0,0.0,93,0.00,,---,0.01,VWS V14.01,2013-10-29 03:55:00,
2013-10-28 23:00:00,60.8,58.8,30.12,SSE,168,0.0,0.0,93,0.00,,---,0.01,VWS V14.01,2013-10-29 04:00:00,
2013-10-28 23:01:00,60.8,58.8,30.12,SSE,168,0.0,0.0,93,0.00,,---,0.01,VWS V14.01,2013-10-29 04:01:00,
2013-10-28 23:06:00,60.7,58.7,30.12,SSE,168,0.0,0.0,93,0.00,,---,0.01,VWS V14.01,2013-10-29 04:06:00,
2013-10-28 23:11:00,60.6,58.6,30.12,SSE,168,0.0,0.0,93,0.00,,---,0.01,VWS V14.01,2013-10-29 04:11:00,
2013-10-28 23:16:00,60.5,58.5,30.12,SSE,168,0.0,0.0,93,0.00,,---,0.01,VWS V14.01,2013-10-29 04:16:00,
2013-10-28 23:21:00,60.6,58.9,30.12,SSE,168,0.0,0.0,94,0.00,,---,0.01,VWS V14.01,2013-10-29 04:21:00,
2013-10-28 23:26:00,60.7,59.0,30.12,SSE,168,0.0,0.0,94,0.00,,---,0.01,VWS V14.01,2013-10-29 04:26:00,
2013-10-28 23:31:00,60.7,59.0,30.12,SSE,168,0.0,0.0,94,0.00,,---,0.01,VWS V14.01,2013-10-29 04:31:00,
2013-10-28 23:36:00,60.7,59.0,30.12,SSE,168,0.0,0.0,94,0.00,,---,0.01,VWS V14.01,2013-10-29 04:36:00,
2013-10-28 23:41:00,60.6,58.9,30.12,SSE,168,0.0,0.0,94,0.00,,---,0.01,VWS V14.01,2013-10-29 04:41:00,
2013-10-28 23:46:00,60.7,59.0,30.12,SSE,168,0.0,0.0,94,0.00,,---,0.01,VWS V14.01,2013-10-29 04:46:00,
2013-10-28 23:51:00,60.7,59.0,30.12,SSE,168,0.0,0.0,94,0.00,,---,0.01,VWS V14.01,2013-10-29 04:51:00,
2013-10-28 23:56:00,60.7,59.0,30.12,SSE,168,0.0,0.0,94,0.00,,---,0.01,VWS V14.01,2013-10-29 04:56:00,